STARLINK-36763

Last updated on Wed Mar 25 2026 00:02:05 GMT+0000 (Coordinated Universal Time)

1 67906U 26036C 26083.50002314 -.01853245 00000+0 -57341-1 0 9999 2 67906 42.9990 162.0793 0001256 272.1477 28.2921 15.36166804 6027
UTC large
Height (km)
Speed (km/s)
/
Latitude / Longitude
Inclination (degrees)
Orbital Period (minutes)
Azimuth
Elevation
Range (km)
Doppler Factor

Next 0 passes for location: London (51.5072 / 0.1276)

Sorry there are no passes over London.